sat.trackr.live / text

‹ back to catalog

STARLINK-35614

NORAD 66164 · 2025-240U

PAYLOAD ACTIVE UNKNOWN

§ Identity

Operator
Country
US
Launch date
2025-10-25
Launch site
AFWTR
Launch vehicle
Mass (kg)
RCS (m²)

Purposes: comms

External: N2YO · Heavens-Above · Gunter

§ Orbital elements

Epoch: 2026-09-19T15:45:08.964864Z

Period
93.85 min
Inclination
53.1599°
Eccentricity
0.0001576
Mean motion
15.34387795 rev/d
Perigee alt
461.7 km
Apogee alt
463.8 km
Semi-major
6,840.9 km
B*
2.1937e-4
RAAN
237.7324°
Arg perigee
90.9384°
Mean anomaly
269.1799°
Rev number
5,174

§ Raw data

STARLINK-356141 66164U 25240U   26262.65635376  .00007039  00000+0  21937-3 0  99982 66164  53.1599 237.7324 0001576  90.9384 269.1799 15.34387795 51749

JSON: /api/v1/satellites/66164 · /tle

For live sub-satellite position, see the globe view (requires WebGL).

§ Visibility from observer

Set your observer location to see the next 7 days of passes ≥ 10°. The values pass through the URL so the page stays shareable.

No JS? Fill the form by hand. The geolocation button needs JavaScript.